Location: Unspecified
(54.8312°N, 0.0000°E)
Time: 08:44:11
(UTC+00:00)

ISS - Pass Details

Date: 26 November 2019
Orbit: 411 x 421 km, 51.6° (Epoch: 07 December)

Event Time Altitude Azimuth Distance (km) Brightness Sun altitude
Rises 18:59:58 0° 248° (WSW) 2,358 1.1 -27.4°
Reaches altitude 10° 19:02:06 10° 241° (WSW) 1,498 -0.2 -27.7°
Enters shadow 19:02:57 16° 236° (SW) 1,177 -0.9 -27.8°
